Weather History for Lubbock, TX

Change the Weather History Date:

Monday, May 26, 2014

  Actual Average Record
Temperature  
Mean Temperature 61 °F 73 °F  
Max Temperature 69 °F 86 °F 101 °F (1945)
Min Temperature 53 °F 59 °F 43 °F (1950)
Degree Days  
Heating Degree Days 4 1  
Month to date heating degree days 51 39  
Since 1 July heating degree days 3513 3376  
Cooling Degree Days 0 8  
Month to date cooling degree days 178 145  
Year to date cooling degree days 236 201  
Growing Degree Days 11 (Base 50)    
Moisture  
Dew Point 56 °F    
Average Humidity 80    
Maximum Humidity 97    
Minimum Humidity 63    
Precipitation  
Precipitation 1.60 in 0.09 in 1.60 in (2014)
Month to date precipitation 5.23 1.83  
Year to date precipitation 6.13 5.74  
Snow  
Snow 0.00 in 0.00 in T in (1996)
Month to date snowfall 0.0 0.0  
Since 1 July snowfall 4.2 8.2  
Snow Depth 0.00 in    
Sea Level Pressure  
Sea Level Pressure 29.97 in    
Wind  
Wind Speed 10 mph (NE)    
Max Wind Speed 40 mph    
Max Gust Speed 47 mph    
Visibility 8 miles    
Events Rain , Thunderstorm    
T = Trace of Precipitation, MM = Missing Value Source: NWS Daily Summary

Daily Weather History Graph

Daily Weather History Graph

Search for Another Location

Airport:

Trip Planner

Search our weather history database for the weather conditions in past years. The results will help you decide how hot, cold, wet, or windy it might be!

Date:

Astronomy

May. 26, 2014 Rise Set
Actual Time 6:40 AM CDT 8:48 PM CDT
Civil Twilight 6:11 AM CDT 9:17 PM CDT
Nautical Twilight 5:37 AM CDT 9:51 PM CDT
Astronomical Twilight 5:00 AM CDT 10:28 PM CDT
Moon 5:16 AM CDT (5/26) 6:59 PM CDT (5/26)
Length of Visible Light 15h 05m
Length of Day
14h 08m
Waning Crescent, 5% of the Moon is Illuminated
May 26
Waning Crescent
May 28
New
Jun 5
First Quarter
Jun 12
Full
Jun 19
Last Quarter

Hourly Weather History & Observations

Time (CDT) Temp. Dew Point Humidity Pressure Visibility Wind Dir Wind Speed Gust Speed Precip Events Conditions
12:12 AM 64.4 °F 60.8 °F 88% 30.06 in 10.0 mi South 11.5 mph - N/A Thunderstorm Thunderstorm
12:53 AM 64.0 °F 60.1 °F 87% 29.96 in 10.0 mi Calm Calm - N/A Thunderstorm Thunderstorm
1:13 AM 63.0 °F 60.1 °F 90% 30.04 in 10.0 mi East 6.9 mph - N/A   Scattered Clouds
1:53 AM 62.1 °F 59.0 °F 90% 29.94 in 10.0 mi ESE 11.5 mph - N/A   Scattered Clouds
2:53 AM 61.0 °F 59.0 °F 93% 29.94 in 10.0 mi ESE 8.1 mph - N/A   Scattered Clouds
3:24 AM 61.0 °F 59.0 °F 93% 30.03 in 10.0 mi SE 10.4 mph - N/A   Mostly Cloudy
3:47 AM 60.8 °F 57.2 °F 88% 30.03 in 10.0 mi SE 9.2 mph - N/A   Scattered Clouds
3:53 AM 61.0 °F 57.9 °F 90% 29.93 in 10.0 mi ESE 5.8 mph - N/A   Scattered Clouds
4:22 AM 61.0 °F 59.0 °F 93% 30.03 in 10.0 mi East 3.5 mph - N/A   Overcast
4:35 AM 61.0 °F 57.9 °F 90% 30.03 in 10.0 mi North 5.8 mph - N/A Thunderstorm Thunderstorm
4:42 AM 59.0 °F 53.1 °F 81% 30.05 in 10.0 mi North 17.3 mph 26.5 mph N/A Thunderstorm Thunderstorm
4:53 AM 55.0 °F 48.9 °F 80% 29.95 in 7.0 mi NNW 19.6 mph 28.8 mph 0.00 in Rain , Thunderstorm Light Thunderstorms and Rain
5:02 AM 53.1 °F 51.1 °F 93% 30.07 in 2.0 mi North 8.1 mph 28.8 mph 0.05 in Rain , Thunderstorm Heavy Thunderstorms and Rain
5:42 AM 54.0 °F 52.0 °F 93% 30.06 in 3.0 mi NNW 11.5 mph - 0.50 in Rain , Thunderstorm Heavy Thunderstorms and Rain
5:53 AM 55.0 °F 52.0 °F 89% 29.96 in 6.0 mi North 10.4 mph - 0.53 in Rain , Thunderstorm Light Thunderstorms and Rain
6:53 AM 55.9 °F 52.0 °F 87% 29.98 in 4.0 mi NNW 8.1 mph - 0.15 in Rain , Thunderstorm Thunderstorms and Rain
7:13 AM 55.0 °F 52.0 °F 89% 30.05 in 10.0 mi NE 9.2 mph - 0.06 in Rain Light Rain
7:53 AM 55.9 °F 53.1 °F 90% 29.95 in 10.0 mi NNE 8.1 mph - 0.06 in   Overcast
8:53 AM 60.1 °F 52.0 °F 75% 29.93 in 10.0 mi NW 6.9 mph - 0.01 in Rain Light Rain
9:53 AM 62.1 °F 54.0 °F 75% 29.93 in 10.0 mi West 11.5 mph - 0.00 in   Mostly Cloudy
10:53 AM 63.0 °F 55.0 °F 75% 29.94 in 10.0 mi WSW 6.9 mph - N/A   Mostly Cloudy
11:53 AM 64.4 °F 55.4 °F 73% 30.06 in 10.0 mi SSE 8.1 mph - N/A   Mostly Cloudy
12:53 PM 66.0 °F 57.0 °F 73% 29.94 in 10.0 mi SE 17.3 mph - 0.00 in Rain Light Rain
1:53 PM 66.9 °F 57.0 °F 70% 29.92 in 10.0 mi SE 15.0 mph - 0.00 in   Overcast
2:53 PM 68.0 °F 55.9 °F 65% 29.90 in 10.0 mi SSE 13.8 mph - N/A   Overcast
3:53 PM 66.9 °F 57.0 °F 70% 29.88 in 10.0 mi East 13.8 mph - 0.00 in Rain Light Rain
4:06 PM 66.0 °F 57.9 °F 75% 29.96 in 7.0 mi ESE 18.4 mph - 0.00 in Rain , Thunderstorm Light Thunderstorms and Rain
4:28 PM 60.1 °F 57.0 °F 90% 29.99 in 1.0 mi NW 40.3 mph 47.2 mph 0.03 in Rain , Thunderstorm Heavy Thunderstorms and Rain
4:31 PM 57.9 °F 55.0 °F 90% 30.00 in 0.2 mi NNW 31.1 mph 47.2 mph 0.11 in Rain , Thunderstorm Heavy Thunderstorms and Rain
4:34 PM 57.0 °F 55.0 °F 93% 30.01 in 0.2 mi North 20.7 mph 47.2 mph 0.32 in Rain , Thunderstorm Heavy Thunderstorms and Rain
4:37 PM 57.0 °F 55.0 °F 93% 30.00 in 0.5 mi North 12.7 mph 47.2 mph 0.50 in Rain , Thunderstorm Heavy Thunderstorms and Rain
4:43 PM 57.0 °F 55.9 °F 96% 30.01 in 3.0 mi North 11.5 mph 23.0 mph 0.73 in Rain , Thunderstorm Thunderstorms and Rain
4:53 PM 57.9 °F 57.0 °F 97% 29.94 in 5.0 mi West 8.1 mph - 0.76 in Rain , Thunderstorm Thunderstorms and Rain
4:56 PM 57.9 °F 57.0 °F 97% 30.02 in 4.0 mi Calm Calm - 0.00 in Rain , Thunderstorm Thunderstorms and Rain
5:22 PM 62.1 °F 57.0 °F 84% 30.00 in 10.0 mi NE 11.5 mph - 0.02 in   Mostly Cloudy
5:53 PM 64.9 °F 57.9 °F 78% 29.88 in 10.0 mi NE 11.5 mph - 0.02 in   Mostly Cloudy
6:21 PM 63.0 °F 57.0 °F 81% 29.98 in 10.0 mi ENE 6.9 mph - N/A Thunderstorm Thunderstorm
6:41 PM 62.1 °F 57.9 °F 86% 30.03 in 3.0 mi NW 13.8 mph - 0.00 in Rain , Thunderstorm Heavy Thunderstorms and Rain
6:50 PM 62.6 °F 57.2 °F 82% 30.02 in 2.0 mi NNW 13.8 mph - 0.05 in Rain , Thunderstorm Thunderstorms and Rain
6:53 PM 61.0 °F 57.0 °F 87% 29.94 in 3.0 mi NNW 16.1 mph - 0.05 in Rain , Thunderstorm Thunderstorms and Rain
7:08 PM 59.0 °F 55.9 °F 90% 29.97 in 9.0 mi NE 12.7 mph - 0.02 in Rain , Thunderstorm Light Thunderstorms and Rain
7:23 PM 61.0 °F 57.0 °F 87% 29.98 in 10.0 mi ENE 6.9 mph - 0.02 in   Mostly Cloudy
7:53 PM 60.1 °F 55.9 °F 86% 29.90 in 10.0 mi East 9.2 mph - 0.02 in   Scattered Clouds
8:53 PM 59.0 °F 55.0 °F 87% 29.90 in 10.0 mi SE 9.2 mph - N/A   Scattered Clouds
9:53 PM 57.9 °F 55.0 °F 90% 29.92 in 10.0 mi South 5.8 mph - N/A   Mostly Cloudy
10:53 PM 57.9 °F 55.9 °F 93% 29.93 in 10.0 mi SSW 3.5 mph - N/A   Mostly Cloudy
11:53 PM 57.0 °F 55.0 °F 93% 29.93 in 9.0 mi SW 5.8 mph - N/A   Scattered Clouds